New Orleans NAS, LA

2:35 AM CDT on May 23, 2018 (GMT -0500)
New Orleans Naval Air Station

Weather History for KNBG - February, 2014

Change the Weather History Date:

Sunday, February 2, 2014

  Actual Average Record
Temperature  
Mean Temperature 67 °F -  
Max Temperature 72 °F 61 °F 77 °F (2016)
Min Temperature 62 °F 46 °F 32 °F (2011)
Cooling Degree Days 2    
Growing Degree Days 17 (Base 50)    
Moisture  
Dew Point 64 °F    
Average Humidity 91    
Maximum Humidity 97    
Minimum Humidity 83    
Precipitation  
Precipitation 0.00 in - - ()
Sea Level Pressure  
Sea Level Pressure 29.99 in    
Wind  
Wind Speed 8 mph (SE)    
Max Wind Speed 15 mph    
Max Gust Speed 22 mph    
Visibility 2 miles    
Events Fog , Rain    
Averages and records for this station are not official NWS values.
T = Trace of Precipitation, MM = Missing Value Source: NWS Daily Summary

Daily Weather History Graph

Daily Weather History Graph

Search for Another Location

Airport or City:

Astronomy

Feb. 02, 2014 Rise Set
Actual Time 6:49 AM CST 5:38 PM CST
Civil Twilight 6:24 AM CST 6:03 PM CST
Nautical Twilight 5:56 AM CST 6:32 PM CST
Astronomical Twilight 5:27 AM CST 7:00 PM CST
Moon 8:33 AM CST (2/2) 9:02 PM CST (2/2)
Length of Visible Light 11h 38m
Length of Day
10h 49m
Waxing Crescent, 11% of the Moon is Illuminated
Feb 2
Waxing Crescent
Feb 6
First Quarter
Feb 14
Full
Feb 22
Last Quarter
Mar 1
New

Hourly Weather History & Observations

Time (CST) Temp. Dew Point Humidity Pressure Visibility Wind Dir Wind Speed Gust Speed Precip Events Conditions
12:42 AM 62.6 °F 60.8 °F 94% 30.03 in 1.2 mi ESE 4.6 mph - N/A   Overcast
12:55 AM 62.1 °F 60.1 °F 93% 30.03 in 1.0 mi ESE 4.6 mph - N/A   Overcast
1:10 AM 62.6 °F 60.8 °F 94% 30.03 in 0.8 mi ESE 6.9 mph - N/A   Overcast
1:21 AM 62.6 °F 60.8 °F 94% 30.03 in 0.8 mi ESE 5.8 mph - N/A   Mist
1:55 AM 62.1 °F 59.0 °F 90% 30.02 in 0.8 mi ESE 4.6 mph - N/A   Mist
2:31 AM 62.6 °F 60.8 °F 94% 30.02 in 1.0 mi East 4.6 mph - N/A   Mist
2:55 AM 62.1 °F 60.1 °F 93% 30.02 in 1.2 mi East 4.6 mph - N/A   Overcast
3:55 AM 63.0 °F 61.0 °F 93% 30.02 in 0.8 mi ESE 4.6 mph - N/A   Mist
4:55 AM 63.0 °F 61.0 °F 93% 30.02 in 1.0 mi ESE 4.6 mph - N/A Rain Light Rain
5:55 AM 63.0 °F 61.0 °F 93% 30.03 in 1.2 mi ESE 8.1 mph - N/A   Overcast
6:10 AM 62.6 °F 60.8 °F 94% 30.03 in 0.8 mi East 6.9 mph - N/A   Mist
6:55 AM 63.0 °F 61.0 °F 93% 30.03 in 0.5 mi ESE 6.9 mph - N/A Fog Fog
7:09 AM 62.6 °F 60.8 °F 94% 30.03 in 0.2 mi ESE 8.1 mph - N/A Fog , Rain Light Rain
7:10 AM 62.6 °F 60.8 °F 94% 30.03 in 0.2 mi ESE 8.1 mph - N/A Fog , Rain Light Rain
7:26 AM 62.6 °F 60.8 °F 94% 30.02 in 0.2 mi ESE 9.2 mph - N/A Fog Fog
7:55 AM 63.0 °F 62.1 °F 97% 30.02 in 0.2 mi ESE 8.1 mph - N/A Fog Fog
8:55 AM 64.0 °F 62.1 °F 93% 30.04 in 0.2 mi ESE 8.1 mph - N/A Fog Fog
9:18 AM 64.4 °F 62.6 °F 94% 30.04 in 0.2 mi SE 10.4 mph - N/A Fog , Rain Light Rain
9:26 AM 64.4 °F 62.6 °F 94% 30.04 in 0.2 mi SE 8.1 mph - N/A Fog Fog
9:55 AM 64.0 °F 62.1 °F 93% 30.03 in 0.2 mi ESE 9.2 mph - N/A Fog Fog
10:55 AM 64.0 °F 62.1 °F 93% 30.01 in 0.2 mi SE 10.4 mph - N/A Fog Fog
11:53 AM 66.2 °F 64.4 °F 94% 29.98 in 1.0 mi SE 6.9 mph - N/A   Overcast
11:55 AM 66.0 °F 64.0 °F 93% 29.98 in 1.0 mi SE 8.1 mph - N/A   Overcast
12:55 PM 68.0 °F 64.9 °F 90% 29.95 in 2.5 mi SE 6.9 mph - N/A   Overcast
1:05 PM 69.8 °F 66.2 °F 88% 29.94 in 4.0 mi SSE 11.5 mph - N/A   Overcast
1:18 PM 69.8 °F 66.2 °F 88% 29.93 in 2.5 mi South 9.2 mph - N/A   Overcast
1:55 PM 70.0 °F 66.9 °F 90% 29.92 in 3.0 mi SSE 10.4 mph - N/A   Overcast
2:55 PM 72.0 °F 68.0 °F 87% 29.93 in 4.0 mi South 12.7 mph - N/A   Overcast
3:55 PM 71.1 °F 66.9 °F 87% 29.94 in 4.0 mi South 11.5 mph - N/A   Overcast
4:15 PM 71.6 °F 66.2 °F 83% 29.94 in 5.0 mi South 11.5 mph - N/A   Overcast
4:55 PM 71.1 °F 66.9 °F 87% 29.94 in 5.0 mi South 11.5 mph - N/A   Overcast
5:55 PM 70.0 °F 66.9 °F 90% 29.94 in 4.0 mi South 11.5 mph - N/A   Overcast
6:55 PM 70.0 °F 66.9 °F 90% 29.95 in 4.0 mi SSW 11.5 mph - N/A   Overcast
7:47 PM 69.8 °F 66.2 °F 88% 29.95 in 2.0 mi SSW 15.0 mph - N/A   Overcast
7:55 PM 70.0 °F 66.9 °F 90% 29.96 in 1.5 mi SSW 12.7 mph 20.7 mph N/A   Overcast
8:39 PM 69.8 °F 66.2 °F 88% 29.96 in 2.0 mi SSW 13.8 mph - N/A   Overcast
8:55 PM 69.1 °F 66.9 °F 93% 29.96 in 3.0 mi SSW 10.4 mph - N/A   Overcast
9:55 PM 70.0 °F 66.9 °F 90% 29.96 in 3.0 mi SSW 12.7 mph - N/A   Overcast
10:15 PM 69.8 °F 66.2 °F 88% 29.98 in 2.0 mi SW 13.8 mph - N/A   Overcast
10:55 PM 70.0 °F 66.9 °F 90% 29.97 in 6.0 mi SW 11.5 mph 20.7 mph N/A   Overcast
11:55 PM 71.1 °F 68.0 °F 90% 29.97 in 6.0 mi SW 12.7 mph 21.9 mph N/A   Overcast